Probability
0 0 0 0 0 0 0 0 0 0 0 0 0 0 0 0 0 0 0 0 0 0 0 0 0 0 0 0 0 0 0 0 0 0 0 0 0 0 0 0 0 0 0 0
0 0 0 0 0 0 0 0 0 0 0 0 0 0 0 0 0 0 0 0 0 0 0 0 0 0 0 0 0 0 0 0 0 0 0 0 0 0 0 0 0 0 0 0
0 0 0 0 0 0 0 0 0 0 0 0 0 0 0 0 0 0 0 0 0 0 0 0 0 0 0 0 0 0 0 0 0 0 0 0 0 0 0 0 0 0 0 0
0 0 0 0 0 0 0 0 0 0 0 0 0 0 0 0 0 0 0 0 0 0 0 0 0 0 0 0 0 0 0 0 0 0 0 0 0 0 0 0 0 0 0 0
0 0 0 0 0 0 0 0 0 0 0 0 0 0 0 0 0 0 0 0 0 0 0 0 0 0 0 0 0 0 0 0 0 0 0 0 0 0 0 0 0 0 0 0
0 0 0 0 0 0 0 0 0 0 0 0 0 0 0 0 0 0 0 0 0 0 0 0 0 0 0 0 0 0 0 0 0 0 0 0 0 0 0 0 0 0 0 0
0 0 0 0 0 0 0 0 0 0 0 0 0 0 0 0 0 0 0 0 0 0 0 0 0 0 0 0 0 0 0 0 0 0 0 0 0 0 0 0 0 0 0 0
0 0 0 0 0 0 0 0 0 0 0 0 0 0 0 0 0 0 0 0 0 0 0 0 0 0 0 0 0 0 0 0 0 0 0 0 0 0 0 0 0 0 0 0
0 0 0 0 0 0 0 0 0 0 0 0 0 0 0 0 0 0 0 0 0 0 0 0 0 0 0 0 0 0 0 0 0 0 0 0 0 0 0 0 0 0 0 0
0 0 0 0 0 0 0 0 0 0 0 0 0 0 0 0 0 0 0 0 0 0 0 0 0 0 0 0 0 0 0 0 0 0 0 0 0 0 0 0 0 0 0 0
0 0 0 0 0 0 0 0 0 0 0 0 0 0 0 0 0 0 0 0 0 0 0 0 0 0 0 0 0 0 0 0 0 0 0 0 0 0 0 0 0 0 0 0
0 0 0 0 0 0 0 0 0 0 0 0 0 0 0 0 0 0 0 0 0 0 0 0 0 0 0 0 0 0 0 0 0 0 0 0 0 0 0 0 0 0 0 0
0 0 0 0 0 0 0 0 0 0 0 0 0 0 0 0 0 0 0 0 0 0 0 0 0 0 0 0 0 0 0 0 0 0 0 0 0 0 0 0 0 0 0 0
0 0 0 0 0 0 0 0 0 0 0 0 0 0 0 0 0 0 0 0 0 0 0 0 0 0 0 0 0 0 0 0 0 0 0 0 0 0 0 0 0 0 0 0
0 0 0 0 0 0 0 0 0 0 0 0 0 0 0 0 0 0 0 0 0 0 0 0 0 0 0 0 0 0 0 0 0 0 0 0 0 0 0 0 0 0 0 0
0 0 0 0 0 0 0 0 0 0 0 0 0 0 0 0 0 0 0 0 0 0 0 0 0 0 0 0 0 0 0 0 0 0 0 0 0 0 0 0 0 0 0 0
0 0 0 0 0 0 0 0 0 0 0 0 0 0 0 0 0 0 0 0 0 0 0 0 0 0 0 0 0 0 0 0 0 0 0 0 0 0 0 0 0 0 0 0
0 0 0 0 0 0 0 0 0 0 0 0 0 0 0 0 0 0 0 0 0 0 0 0 0 0 0 0 0 0 0 0 0 0 0 0 0 0 0 0 0 0 0 0
0 0 0 0 0 0 0 0 0 0 0 0 0 0 0 0 0 0 0 0 0 0 0 0 0 0 0 0 0 0 0 0 0 0 0 0 0 0 0 0 0 0 0 0
0 0 0 0 0 0 0 0 0 0 0 0 0 0 0 0 0 0 0 0 0 0 0 0 0 0 0 0 0 0 0 0 0 0 0 0 0 0 0 0 0 0 0 0
0 0 0 0 0 0 0 0 0 0 0 0 0 0 0 0 0 0 0 0 0 0 0 0 0 0 0 0 0 0 0 0 0 0 0 0 0 0 0 0 0 0 0 0
0 0 0 0 0 0 0 0 0 0 0 0 0 0 0 0 0 0 0 0 0 0 0 0 0 0 0 0 0 0 0 0 0 0 0 0 0 0 0 0 0 0 0 0
0 0 0 0 0 0 0 0 0 0 0 0 0 0 0 0 0 0 0 0 0 0 0 0 0 0 0 0 0 0 0 0 0 0 0 0 0 0 0 0 0 0 0 0
0 0 0 0 0 0 0 0 0 0 0 0 0 0 0 0 0 0 0 0 0 0 0 0 0 0 0 0 0 0 0 0 0 0 0 0 0 0 0 0 0 0 0 0
0 0 0 0 0 0 0 0 0 0 0 0 0 0 0 0 0 0 0 0 0 0 0 0 0 0 0 0 0 0 0 0 0 0 0 0 0 0 0 0 0 0 0 0
0 0 0 0 0 0 0 0 0 0 0 0 0 0 0 0 0 0 0 0 0 0 0 0 0 0 0 0 0 0 0 0 0 0 0 0 0 0 0 0 0 0 0 0
0 0 0 0 0 0 0 0 0 0 0 0 0 0 0 0 0 0 0 0 0 0 0 0 0 0 0 0 0 0 0 0 0 0 0 0 0 0 0 0 0 0 0 0
Height
5699 5698 5698 5698 5697 5696 5695 5695 5695 5694 5693 5692 5691 5690 5689 5688 5686 5685 5683 5682 5680 5679 5678 5676 5675 5673 5671 5670 5668 5666 5664 5662 5661 5659 5658 5656 5654 5653 5651 5650 5648 5647 5645 5643
5697 5695 5695 5695 5694 5693 5692 5691 5691 5690 5689 5687 5686 5685 5683 5682 5680 5679 5677 5675 5674 5672 5670 5668 5667 5665 5663 5661 5659 5657 5655 5653 5652 5650 5648 5647 5645 5644 5642 5640 5638 5637 5635 5633
5694 5693 5692 5692 5691 5689 5689 5688 5687 5685 5685 5683 5681 5679 5677 5676 5674 5672 5671 5669 5667 5665 5663 5661 5659 5657 5655 5652 5650 5648 5646 5644 5642 5641 5639 5637 5636 5634 5632 5630 5628 5626 5624 5622
5690 5690 5689 5690 5687 5685 5684 5683 5682 5680 5679 5677 5676 5674 5671 5669 5667 5665 5663 5661 5659 5657 5655 5653 5650 5648 5646 5644 5641 5639 5637 5635 5633 5631 5629 5627 5626 5624 5622 5620 5618 5616 5613 5611
5686 5685 5684 5685 5683 5681 5679 5679 5677 5675 5673 5672 5669 5667 5665 5662 5660 5658 5656 5654 5651 5649 5647 5644 5642 5639 5637 5634 5632 5630 5628 5625 5623 5621 5620 5618 5616 5614 5611 5609 5607 5605 5602 5600
5680 5679 5679 5680 5677 5675 5675 5673 5671 5669 5667 5665 5663 5661 5659 5655 5652 5650 5647 5645 5642 5640 5638 5635 5632 5630 5627 5625 5623 5620 5618 5615 5613 5611 5609 5607 5605 5603 5601 5598 5596 5593 5591 5588
5674 5673 5673 5673 5670 5669 5669 5668 5664 5662 5660 5657 5655 5652 5650 5646 5644 5641 5638 5636 5633 5630 5628 5625 5623 5620 5618 5615 5612 5610 5608 5605 5603 5601 5598 5596 5594 5591 5589 5586 5584 5581 5579 5576
5668 5667 5668 5665 5663 5662 5661 5658 5656 5653 5651 5649 5646 5643 5640 5638 5635 5632 5629 5626 5623 5621 5618 5615 5612 5610 5608 5605 5602 5600 5597 5595 5592 5590 5587 5585 5582 5580 5577 5574 5571 5569 5566 5563
5662 5662 5659 5656 5655 5653 5651 5649 5647 5645 5642 5639 5637 5634 5631 5628 5625 5622 5619 5616 5613 5610 5607 5604 5601 5599 5596 5594 5591 5589 5586 5583 5581 5578 5575 5573 5570 5567 5564 5561 5558 5556 5553 5550
5653 5653 5650 5648 5646 5644 5642 5640 5638 5635 5632 5629 5626 5623 5620 5617 5614 5611 5608 5605 5602 5599 5596 5593 5590 5587 5584 5582 5579 5577 5574 5572 5569 5566 5563 5560 5557 5554 5551 5548 5546 5543 5540 5537
5644 5643 5641 5639 5637 5635 5633 5630 5628 5625 5622 5619 5616 5613 5609 5606 5603 5599 5596 5593 5590 5587 5584 5581 5578 5575 5572 5569 5567 5564 5562 5559 5556 5553 5550 5548 5545 5541 5538 5536 5532 5530 5526 5523
5634 5633 5631 5630 5627 5625 5622 5620 5617 5614 5611 5608 5604 5601 5598 5594 5591 5588 5584 5581 5578 5575 5572 5569 5566 5563 5560 5557 5554 5551 5549 5546 5543 5540 5537 5534 5532 5529 5525 5523 5520 5516 5513 5510
5623 5621 5620 5618 5616 5614 5611 5609 5606 5603 5600 5596 5593 5590 5586 5583 5580 5576 5573 5569 5566 5563 5560 5557 5553 5550 5547 5544 5541 5538 5535 5532 5530 5527 5524 5521 5518 5515 5513 5510 5507 5503 5500 5497
5611 5610 5608 5606 5604 5602 5599 5597 5594 5591 5588 5584 5581 5578 5574 5571 5568 5564 5561 5557 5554 5551 5547 5544 5541 5537 5534 5531 5528 5524 5521 5518 5515 5513 5510 5507 5504 5501 5499 5496 5494 5491 5487 5484
5599 5598 5596 5594 5592 5590 5587 5585 5582 5579 5575 5572 5569 5566 5562 5559 5555 5552 5548 5545 5541 5538 5535 5531 5528 5524 5520 5517 5514 5511 5508 5504 5501 5498 5495 5493 5490 5487 5485 5482 5480 5478 5475 5471
5587 5585 5583 5582 5580 5577 5575 5572 5570 5567 5563 5560 5557 5553 5550 5547 5543 5540 5536 5532 5529 5526 5522 5518 5514 5511 5507 5504 5500 5497 5494 5490 5487 5484 5481 5478 5476 5473 5471 5469 5466 5464 5462 5459
5574 5572 5571 5569 5567 5565 5562 5560 5557 5554 5551 5548 5545 5541 5538 5534 5531 5527 5523 5520 5516 5512 5509 5505 5501 5497 5494 5490 5486 5483 5480 5476 5473 5470 5467 5464 5462 5460 5457 5455 5453 5451 5449 5446
5561 5559 5558 5556 5554 5552 5550 5547 5544 5541 5538 5535 5532 5528 5525 5521 5518 5514 5510 5507 5503 5500 5495 5491 5487 5484 5480 5476 5473 5469 5466 5463 5459 5456 5453 5451 5449 5446 5444 5442 5440 5438 5436 5433
5548 5546 5545 5543 5541 5539 5537 5534 5531 5528 5525 5522 5519 5515 5512 5508 5504 5500 5496 5493 5489 5485 5482 5477 5474 5470 5466 5463 5459 5456 5453 5449 5446 5443 5441 5438 5436 5434 5432 5430 5428 5425 5423 5421
5535 5533 5532 5530 5528 5526 5524 5521 5518 5515 5511 5508 5505 5501 5498 5494 5490 5486 5482 5479 5475 5470 5467 5463 5460 5456 5452 5449 5446 5443 5440 5437 5434 5431 5428 5426 5424 5422 5419 5417 5415 5413 5411 5409
5521 5520 5518 5516 5514 5512 5509 5506 5503 5501 5497 5493 5490 5486 5483 5479 5475 5471 5467 5464 5461 5456 5452 5448 5445 5441 5438 5435 5432 5429 5427 5424 5421 5419 5416 5414 5412 5410 5408 5406 5404 5402 5400 5398
5507 5505 5504 5502 5500 5498 5495 5492 5489 5486 5483 5479 5475 5471 5467 5464 5460 5456 5452 5448 5445 5441 5437 5434 5430 5427 5424 5421 5418 5416 5414 5411 5409 5407 5405 5403 5401 5399 5397 5395 5393 5391 5389 5387
5492 5491 5489 5487 5485 5483 5480 5477 5474 5470 5467 5464 5460 5456 5452 5448 5444 5440 5437 5434 5430 5426 5423 5419 5416 5413 5410 5408 5405 5403 5401 5399 5397 5395 5393 5391 5389 5387 5386 5384 5382 5380 5378 5376
5477 5476 5474 5471 5469 5467 5465 5462 5458 5455 5451 5448 5444 5440 5436 5432 5429 5425 5421 5418 5415 5412 5409 5406 5403 5400 5397 5395 5393 5391 5389 5387 5386 5384 5382 5380 5378 5376 5375 5373 5372 5370 5368 5366
5462 5460 5458 5456 5454 5451 5448 5446 5443 5440 5436 5433 5429 5425 5421 5416 5413 5410 5407 5404 5401 5398 5395 5393 5390 5387 5384 5382 5380 5379 5377 5375 5374 5372 5371 5369 5367 5366 5364 5363 5361 5360 5358 5356
5446 5445 5443 5440 5437 5434 5432 5429 5426 5424 5420 5417 5415 5411 5407 5403 5399 5395 5392 5389 5386 5384 5382 5380 5377 5375 5373 5371 5369 5367 5365 5364 5363 5361 5360 5359 5357 5356 5355 5353 5352 5350 5348 5347
5430 5428 5426 5424 5421 5417 5415 5412 5410 5407 5404 5401 5399 5396 5393 5389 5385 5381 5378 5375 5373 5371 5369 5367 5365 5363 5361 5359 5358 5356 5354 5353 5352 5351 5350 5349 5348 5347 5346 5344 5342 5341 5339 5338
Wind_Speed
11 11 12 12 13 14 14 15 16 16 17 18 19 20 20 21 22 24 25 26 27 27 28 28 29 30 31 32 32 33 34 34 35 35 35 35 35 35 35 35 36 36 37 37
12 13 13 13 14 15 16 17 17 18 18 20 21 21 22 23 24 25 26 27 28 28 28 29 30 30 31 32 32 33 34 34 35 35 35 35 35 36 36 37 37 38 38 38
14 15 15 14 15 16 17 18 19 19 20 22 22 23 24 25 26 26 27 28 28 28 29 30 30 31 32 32 33 33 34 34 35 35 35 35 35 36 37 37 38 38 38 38
15 16 16 15 16 18 18 19 20 21 22 23 24 25 26 26 27 28 28 29 29 30 30 30 31 31 32 33 33 33 33 34 34 34 35 35 36 36 37 38 38 38 39 39
17 17 17 17 18 20 20 21 22 23 24 25 26 27 28 29 29 29 30 30 31 31 31 32 32 33 33 33 33 34 34 34 35 35 35 36 36 37 37 38 39 39 39 40
21 21 20 20 21 22 23 23 24 25 26 27 28 29 30 30 31 31 32 32 33 33 34 34 34 34 34 34 34 35 35 35 36 36 36 37 38 38 39 40 40 40 40 41
24 24 23 23 24 25 25 26 27 28 29 30 31 32 32 32 33 33 34 35 35 36 36 36 37 37 36 36 36 36 36 37 37 38 38 39 40 40 41 42 42 42 42 42
26 26 26 27 27 28 29 30 30 31 31 32 33 34 35 35 35 36 36 37 37 38 38 38 38 38 38 38 38 38 38 38 39 39 40 41 41 42 42 43 43 42 42 43
28 28 28 29 30 30 31 32 33 34 34 35 35 36 37 37 37 38 38 38 38 39 39 39 40 40 40 40 41 40 40 40 41 41 42 42 43 43 43 43 43 43 43 44
30 30 31 32 33 33 34 35 35 36 36 37 37 38 38 38 39 39 40 40 40 40 40 41 41 41 41 42 42 42 41 42 42 43 43 43 43 43 43 43 43 44 44 44
33 32 34 34 35 35 36 36 37 37 38 39 39 39 39 40 40 40 41 41 41 41 41 41 41 42 42 42 42 42 43 43 44 44 44 44 43 43 43 43 43 44 44 44
35 35 36 36 37 38 38 38 39 39 40 40 41 41 41 41 41 41 41 41 41 41 41 41 42 42 42 43 43 44 44 44 44 45 45 45 44 44 44 44 43 44 44 44
37 37 38 38 39 39 40 40 40 41 41 41 42 42 42 42 42 42 42 41 41 41 42 42 42 43 43 44 44 45 45 45 45 45 45 45 45 45 45 44 44 44 44 44
39 39 39 40 40 40 40 41 41 41 42 42 42 42 43 43 43 42 42 42 42 42 43 43 43 44 45 45 45 46 46 46 46 46 46 46 46 46 46 45 44 43 43 43
40 40 40 40 41 41 41 41 41 42 42 43 43 43 43 43 43 43 43 43 44 44 44 44 44 45 45 46 46 46 46 47 47 47 47 46 46 46 45 44 44 43 42 42
41 41 41 41 41 41 41 41 42 42 42 43 43 43 43 43 43 43 44 44 45 45 45 45 46 46 47 47 46 46 47 47 47 47 46 46 45 44 44 43 42 42 41 41
41 41 41 41 41 41 41 42 42 43 43 43 43 44 44 44 44 44 45 45 46 46 46 47 47 48 48 47 47 46 46 46 46 45 45 44 44 43 42 42 41 41 41 41
41 41 41 41 42 42 42 43 44 44 44 44 44 44 45 45 45 45 46 46 46 47 48 48 49 48 48 47 47 46 46 45 44 44 43 43 43 42 41 40 40 40 40 40
41 41 42 42 42 43 43 44 44 44 45 45 45 46 46 47 48 48 49 48 48 48 48 49 49 48 47 46 46 45 44 43 43 42 42 41 40 40 39 39 39 39 39 39
42 42 43 43 43 44 44 45 46 46 47 47 48 48 49 49 50 51 51 50 50 50 49 49 48 47 47 46 45 44 43 42 41 40 40 40 39 38 38 38 37 37 37 37
43 43 44 44 45 46 46 47 48 48 49 49 50 51 51 51 52 52 52 51 50 50 49 48 48 48 47 46 44 43 42 41 40 39 38 38 37 36 36 35 35 35 35 34
44 45 45 46 47 48 48 49 50 50 51 51 52 53 53 53 53 53 52 51 49 49 49 48 47 47 46 44 42 41 40 39 38 37 37 37 36 35 35 34 34 34 33 33
46 47 48 49 49 49 49 50 51 52 52 53 54 54 54 53 52 52 51 49 49 48 47 46 46 44 43 42 41 40 39 38 37 36 36 35 35 34 34 33 33 32 32 32
47 48 49 50 50 51 51 51 52 53 53 54 53 53 52 51 50 50 50 49 48 46 45 45 44 43 41 40 39 38 38 37 36 35 35 34 34 33 33 32 32 31 31 31
50 50 50 51 52 52 52 53 53 54 53 53 52 51 51 51 50 49 48 47 46 45 44 43 42 40 39 38 37 37 36 35 35 34 33 33 32 31 31 30 30 30 30 29
51 52 52 53 53 53 53 54 54 54 53 52 50 49 49 49 49 48 47 45 44 43 41 40 39 38 37 36 36 35 35 34 33 32 32 31 30 29 29 29 29 28 28 27
53 53 53 53 54 54 54 54 54 52 51 51 50 49 48 47 46 45 44 43 42 40 39 38 37 36 35 34 33 33 32 31 31 30 29 28 27 27 27 28 27 27 26 25
Wind_Direction
290 288 288 287 286 286 286 286 287 288 288 289 290 289 289 288 286 284 284 284 282 281 281 281 280 280 281 281 281 282 282 283 283 282 282 282 281 280 281 282 282 282 284 284
291 288 287 287 288 287 287 288 288 288 290 289 290 290 290 288 287 286 286 285 285 284 283 283 283 283 283 282 283 283 283 283 283 283 283 282 281 281 281 282 283 283 284 285
291 288 288 288 289 289 289 289 290 290 289 290 292 292 290 288 287 286 286 285 286 286 286 286 286 286 285 284 284 284 284 284 284 284 283 282 282 282 282 283 283 284 284 285
290 289 290 291 290 291 291 291 291 291 291 291 293 293 292 292 291 289 287 287 286 287 288 288 288 287 287 286 286 286 285 285 284 284 284 283 284 284 284 284 284 284 285 285
290 288 289 290 291 292 293 292 292 292 292 293 294 294 293 293 292 291 289 288 287 287 288 288 289 289 289 288 288 288 287 286 285 285 285 285 285 285 286 286 286 286 286 286
289 288 289 290 290 291 292 293 294 294 294 295 295 294 294 292 291 290 289 288 288 288 288 287 288 288 289 289 289 289 289 288 287 287 286 287 287 287 287 287 287 287 287 288
287 288 290 291 291 291 292 294 295 296 296 296 295 295 294 293 291 290 289 288 288 288 288 287 287 288 289 290 290 289 290 290 288 288 288 288 288 288 288 288 288 288 288 287
286 288 289 289 290 291 293 294 295 296 297 296 295 294 293 292 291 290 289 288 287 287 287 287 288 288 289 290 290 290 290 290 289 289 289 289 289 289 289 288 288 288 288 288
287 288 289 289 290 292 293 294 295 295 296 296 295 295 293 292 291 290 289 288 287 287 287 287 287 288 288 288 289 289 289 290 290 290 290 290 290 290 289 288 288 288 288 288
286 287 288 289 291 293 294 295 295 296 296 296 295 294 293 292 291 290 290 289 288 288 287 287 288 288 288 288 288 289 289 289 290 290 290 290 290 290 289 289 289 288 288 288
284 285 286 289 291 292 293 294 295 296 297 297 296 294 293 292 291 291 290 290 290 289 289 288 288 288 288 288 288 288 288 289 289 290 290 289 290 290 290 290 290 290 289 289
285 285 286 289 290 292 293 294 295 295 296 296 295 294 293 292 292 291 291 291 291 291 290 289 289 289 288 289 289 289 289 289 289 289 289 289 288 289 290 290 290 290 290 290
286 286 287 290 290 291 293 294 294 295 296 296 295 295 294 293 293 292 291 290 291 291 290 290 290 290 289 289 290 290 289 289 288 288 288 288 288 288 289 289 289 290 290 290
284 286 288 289 290 291 292 294 295 296 297 296 296 295 295 294 293 292 292 291 291 291 291 291 291 291 291 290 290 289 289 289 288 288 288 288 288 288 288 288 288 289 289 289
284 286 287 288 289 290 291 293 295 296 297 296 295 295 295 294 293 292 292 291 292 292 292 292 292 292 292 291 291 290 290 290 290 289 288 288 288 288 288 288 288 288 288 288
284 285 286 287 288 290 291 293 295 296 296 295 295 295 295 294 294 293 292 292 293 293 293 292 292 292 292 292 292 292 292 292 291 290 289 288 288 288 288 287 287 288 288 288
283 284 285 286 288 290 291 292 293 294 294 294 294 294 294 294 294 293 293 293 293 293 293 293 293 293 293 293 293 293 293 293 292 291 290 289 288 288 287 287 286 287 287 288
282 283 284 286 287 289 290 292 293 293 293 294 294 294 294 294 293 293 293 293 294 293 293 293 293 294 294 293 293 293 294 293 292 291 290 289 289 288 287 287 287 287 287 288
282 283 283 285 287 288 290 291 292 292 292 293 293 293 293 293 293 293 294 294 294 294 293 293 293 293 294 294 293 294 294 293 292 291 291 290 290 289 288 288 288 287 288 288
282 283 284 285 286 287 289 290 290 290 291 291 291 292 292 292 292 293 293 294 294 294 294 293 293 293 294 293 293 293 293 292 292 291 291 290 290 289 288 288 288 289 289 289
281 282 283 284 285 286 287 288 289 290 290 291 291 292 292 292 292 293 294 294 294 294 294 293 293 293 293 293 292 292 291 291 291 291 291 290 290 289 289 288 289 290 290 290
281 282 283 283 284 285 286 287 288 289 290 291 292 292 292 293 293 293 294 294 294 294 294 293 293 292 292 292 291 290 290 290 290 291 291 290 290 289 288 288 289 290 290 290
281 282 283 284 284 285 286 287 288 289 290 291 292 293 293 293 294 294 294 293 293 293 293 293 293 292 292 291 289 289 289 289 290 291 291 290 289 288 288 288 289 289 289 289
282 282 283 283 284 285 286 287 288 289 290 291 293 293 294 294 294 294 294 294 293 292 292 293 292 291 291 290 289 288 288 288 289 290 290 290 289 288 288 288 288 288 288 289
282 282 283 283 284 285 285 287 288 290 291 292 293 293 294 294 294 294 294 293 292 291 292 292 292 291 290 290 289 288 287 286 287 288 289 289 288 288 288 289 289 289 289 289
281 282 283 284 284 285 286 287 289 290 290 291 292 292 293 294 294 294 294 292 291 291 290 290 290 290 290 289 289 288 287 285 285 286 287 287 288 288 290 290 290 289 289 289
282 283 284 284 285 285 286 287 288 289 290 291 292 292 293 294 294 294 293 292 291 290 289 289 289 289 289 289 289 288 286 285 285 285 286 286 287 289 290 291 290 289 288 289